{"data":{"norad_id":60436,"epoch":"2026-09-21T13:44:40.419456Z","epoch_age_seconds":95460,"freshness":"FRESH","line1":"1 60436U 24144M   26264.57269004  .00003870  00000+0  12560-3 0  9991","line2":"2 60436  53.1624  22.7457 0001175  64.9258 295.1867 15.34399875119369","mean_motion":15.34399875,"eccentricity":0.0001175,"inclination_deg":53.1624,"raan_deg":22.7457,"arg_perigee_deg":64.9258,"mean_anomaly_deg":295.1867,"bstar":0.0001256,"rev_number":11936,"period_min":93.847765726649,"perigee_km":461.89981296159,"apogee_km":463.50741050535,"semimajor_km":6840.8406117335,"source":"CELESTRAK","updated_at":"2026-09-22T09:00:49.235622Z"}}